Вернуться в каталог

GHOST-3

АктивенНаукаPO
NORAD 56958·PAYLOAD·🇺🇸 United States

Запущен Jun 12, 2023 с Vandenberg Space Force Base

Loading…

Ближайшие Пролёты (ближайшие 24 часа)

TLE

СвежийSource: Space-Track

Эпоха: Sep 14, 2026, 10:07 UTC

1 56958U 23084AC  26257.42208017  .00016428  00000-0  28656-3 0  9997
2 56958  97.6342  51.0426 0005569 330.9918  29.1022 15.50782079181833

Отслеживайте GHOST-3 в реальном времени с AllMySat

Download on the App Store